Southeastern Grand Banks: Past 24 Hour Conditions

 

Stephenville Airport

11:30 PM NDT 02 September 2014
This table is a summary of hourly weather conditions for the past 24 hours.
Date / Time
(NDT)
Wind(knots) Conditions Visibility(km) Pressure(kPa) Air tempC) Relative humidity(%) Dew pointC) Humidex
02 September 2014
23:30 ENE 5 Cloudy 24 101.4 16 76 12 *
22:30 E 6 Mostly Cloudy 24 101.5 17 71 12 *
21:30 ESE 8 Partly Cloudy 24 101.5 17 71 12 *
20:30 SSE 13 gust 18 Mainly Clear 24 101.5 17 71 12 *
19:30 S 16 Mainly Sunny 24 101.5 18 68 12 *
18:30 S 13 Sunny 24 101.5 20 63 13 *
17:30 S 11 Mainly Sunny 24 101.6 21 59 13 *
16:30 S 7 Mainly Sunny 24 101.6 21 59 13 *
15:30 S 11 Mainly Sunny 24 101.6 22 57 13 25
14:30 S 11 Mainly Sunny 24 101.6 22 59 14 26
13:30 S 12 gust 19 Mainly Sunny 24 101.6 23 54 13 25
12:30 S 4 Mainly Sunny 24 101.6 22 60 14 25
11:30 SSW 4 Mainly Sunny 24 101.7 21 67 14 *
10:30 calm Mainly Sunny 24 101.7 20 67 14 *
9:30 ENE 6 Mainly Sunny 24 101.7 19 70 13 *
8:30 ENE 7 Mainly Sunny 24 101.7 17 75 12 *
7:30 ENE 6 Partly Cloudy 24 101.8 15 75 11 *
6:30 ENE 7 Partly Cloudy 24 101.7 14 77 10 *
5:30 E 9 Mainly Clear 24 101.7 15 74 10 *
4:30 ENE 8 Mainly Clear 24 101.7 14 76 10 *
3:30 NE 6 Clear 24 101.6 13 77 9 *
2:30 NNE 5 Mainly Clear 24 101.6 11 77 8 *
1:30 NNE 3 Clear 24 101.6 12 73 7 *
0:30 NE 5 Clear 24 101.7 11 76 7 *
01 September 2014
23:30 NNE 4 Clear 24 101.6 13 70 8 *
 
Map of Atlantic - Newfoundland marine weather areas Southwestern Grand Banks - 44138 Banquereau - 44139 Tail of the Bank - 44140 Nickerson Bank - 44251 Northeast Burgeo Bank - 44255 Blanc-Sablon Airport Cap Whittle Chevery Natashquan Airport Heath Point Miscou Island Grand Étang Ingonish Beach North Mountain St.Paul Island J.A. Douglas McCurdy Sydney Airport Charlottetown Airport East Point North Cape Argentia Bonavista Burgeo Cape Race Corner Brook Daniel's Harbour Englee Ferolle Point La Scie Port aux Basques Rocky Harbour Sagona Island St. Anthony Airport St. John's Int'l Airport St. Lawrence Stephenville Airport Twillingate Winterland Wreckhouse Cartwright Airport Mary's Harbour Grates Cove Pool's Island Marticot Island Long Pond Îles de la Madeleine Airport
Legend: buoyBuoy land stationLand Station